SCP
-0 -0 -0 0 0 0 0 0 0 0 0 0 0 1 1 0 0 1 0 0 0 0 1 0 0 0 0 0 0 0 0 0 0 0 0 0 0 0 0 0 0 0 0
-0 -0 -0 0 0 0 0 0 -0 0 0 0 0 0 1 1 0 0 0 0 0 0 0 1 0 0 0 0 0 0 0 0 0 0 0 0 0 0 0 0 0 0 0
-0 -0 -0 -0 0 0 0 0 0 0 0 0 0 1 1 0 0 0 0 0 0 0 0 0 0 0 0 0 0 0 0 0 0 0 0 0 0 0 0 0 0 0 0
-0 -0 -0 -0 0 0 0 0 0 0 0 0 0 0 1 0 0 0 0 0 0 0 0 0 0 0 0 0 0 0 0 0 0 0 0 0 0 0 0 0 0 0 0
-0 -0 -0 -0 0 -0 0 0 0 0 0 0 0 0 1 0 0 0 0 0 0 0 0 0 0 0 0 0 0 0 0 0 0 0 0 0 0 0 0 0 0 0 0
-0 -0 -0 -0 0 0 0 0 0 0 0 0 0 0 0 0 0 0 0 0 0 0 0 0 0 0 0 0 0 0 0 0 0 0 0 0 0 0 0 0 0 0 0
-0 -0 -0 -0 0 0 0 0 0 0 0 0 0 0 0 0 0 0 0 0 0 0 0 0 0 0 0 0 0 0 0 0 0 0 0 0 0 0 0 0 0 0 0
-0 -0 -0 -0 0 0 0 0 0 0 0 0 0 0 0 0 0 0 0 0 0 0 0 0 0 0 0 0 0 0 0 0 0 0 0 0 0 0 0 0 0 0 0
-0 -0 -0 0 0 0 0 0 0 0 0 0 0 0 0 0 0 0 0 0 0 0 1 0 0 0 0 0 0 0 0 0 0 0 0 0 0 0 0 0 0 0 0
-0 -0 -0 -0 0 0 0 0 0 0 0 0 0 0 0 0 0 0 0 0 0 0 0 1 1 0 0 0 0 0 0 0 0 0 0 0 0 0 0 0 0 0 0
-0 -0 0 0 0 -0 0 0 0 0 0 0 0 0 0 0 0 0 0 0 0 0 0 0 1 1 1 0 0 0 0 0 0 0 0 0 0 0 0 0 0 0 0
-0 -0 -0 -0 -0 -0 -0 -0 0 0 0 0 0 0 0 0 0 0 0 0 0 0 0 0 0 1 1 0 0 0 0 0 0 0 0 0 0 0 0 0 0 0 0
-0 -0 -0 -0 -0 0 -0 -0 0 0 0 0 0 0 0 0 0 0 0 0 0 0 0 0 0 1 1 0 0 0 0 0 0 0 0 0 0 0 0 0 0 0 0
-0 -0 -0 -0 -0 -0 -0 0 0 0 0 0 0 0 0 0 0 0 0 0 0 0 0 0 0 1 1 0 0 0 0 0 0 0 0 0 0 0 0 0 0 0 0
-0 -0 -0 -0 -0 0 0 0 0 0 0 0 0 0 0 0 0 0 0 0 0 0 0 0 0 0 1 0 0 0 0 0 0 0 0 0 0 0 0 0 0 0 0
-0 -0 -0 -0 -0 0 0 0 0 0 0 0 0 0 0 0 0 0 0 0 0 0 0 0 0 0 0 0 0 0 0 0 0 0 0 0 0 0 0 0 0 0 0
-0 -0 -0 -0 -0 -0 -0 0 0 0 0 0 0 0 0 0 0 0 0 0 0 0 0 0 0 0 0 0 0 0 0 0 0 0 0 0 0 0 0 0 0 0 0
-0 -0 -0 -0 -0 -0 -0 0 0 0 0 0 0 0 0 0 0 0 0 0 0 0 0 0 0 0 0 0 0 0 0 0 0 0 0 0 0 0 0 0 0 0 0
-0 -0 -0 -0 -0 -0 -0 0 0 0 0 0 0 0 0 0 0 0 0 0 0 0 0 0 0 0 0 0 0 0 0 0 0 0 0 0 0 0 0 0 0 0 0
-0 -0 -0 -0 -0 -0 0 0 0 0 0 0 0 0 0 0 0 0 0 0 0 0 0 0 0 0 0 0 0 0 0 1 0 0 0 0 0 0 0 0 0 0 0
-0 -0 -0 -0 -0 -0 -0 0 0 0 0 0 0 0 0 0 0 0 0 0 0 0 0 0 0 0 0 0 0 0 0 0 0 0 0 0 0 0 0 0 0 0 0
-0 -0 -0 -0 0 -0 -0 -0 0 0 0 0 0 0 0 0 0 0 0 0 0 0 0 0 0 0 0 0 0 0 0 0 0 0 0 0 0 0 0 0 0 0 0
0 -0 -0 -0 0 0 -0 -0 -0 0 0 0 0 0 0 0 0 0 0 0 0 0 0 0 0 0 0 0 0 0 0 0 0 0 0 0 0 0 0 0 0 0 0
0 -0 -0 -0 -0 -0 -0 -0 -0 -0 0 0 0 0 0 0 0 0 0 0 0 0 0 0 0 0 0 0 0 -0 0 0 0 0 0 0 0 0 0 0 0 0 0
0 -0 -0 0 0 -0 -0 -0 -0 0 0 0 0 0 0 0 0 0 0 0 0 0 0 0 0 0 0 0 0 0 0 0 0 0 0 0 0 0 0 0 0 0 0
0 0 -0 -0 0 0 0 -0 -0 -0 0 0 0 0 0 0 0 0 0 0 0 0 0 0 0 0 0 0 0 0 0 0 0 0 0 0 0 0 0 0 0 0 0
Wind_Speed_500mb
74 62 54 52 50 45 40 40 36 56 61 65 62 67 66 73 76 72 58 75 54 67 65 54 57 57 57 54 53 50 48 44 40 37 32 25 20 21 19 17 12 4 2
68 67 58 51 51 50 39 46 55 45 49 72 72 72 70 74 77 78 76 72 65 65 71 65 61 62 62 59 57 54 52 48 43 39 35 29 24 23 20 19 15 8 5
63 59 56 53 53 51 42 36 41 44 46 63 68 79 74 72 79 81 83 73 64 65 75 66 65 65 68 65 61 58 56 51 47 41 38 32 27 25 25 22 13 12 9
61 56 51 52 54 55 48 36 32 37 69 45 53 83 77 74 80 82 80 78 75 61 82 79 74 71 72 69 65 62 60 54 49 45 41 35 31 28 28 20 17 15 14
58 48 46 53 50 57 56 44 29 30 33 58 55 39 78 78 80 81 77 73 68 69 79 74 71 74 73 71 70 67 65 58 52 48 44 39 34 27 28 27 22 18 16
54 45 50 46 47 56 62 55 39 27 28 35 73 38 63 84 79 75 70 70 71 64 70 74 79 83 70 75 74 72 69 62 56 52 48 42 36 30 32 31 27 23 18
51 47 53 51 50 54 60 63 47 33 18 27 33 69 33 71 67 72 71 67 68 68 75 85 85 105 97 84 79 77 71 66 61 55 52 46 40 37 36 36 33 27 21
47 48 51 51 50 51 58 65 61 47 31 23 18 45 53 37 64 57 58 69 70 66 68 65 86 109 97 91 88 82 76 70 65 59 55 49 46 40 36 41 37 33 27
49 47 50 50 47 49 52 58 61 52 41 24 13 5 14 13 53 73 72 56 65 72 70 67 80 89 104 89 91 85 81 74 69 63 58 54 49 43 41 43 42 38 34
52 49 48 49 50 48 51 53 57 62 39 35 14 7 11 21 12 36 80 78 58 66 74 77 82 77 92 84 88 87 83 79 72 66 62 58 52 49 49 44 45 41 41
54 47 46 46 47 47 49 46 55 58 35 31 27 23 25 32 23 10 39 72 65 63 73 68 71 78 81 79 83 85 83 83 79 71 66 62 58 55 52 50 50 45 44
59 43 46 44 43 43 46 50 53 49 35 26 23 22 21 21 26 18 12 34 61 63 67 70 71 73 73 75 76 78 80 82 85 78 71 66 63 60 56 52 52 47 45
54 44 43 44 44 41 38 51 57 43 36 30 24 22 23 23 24 29 43 38 19 43 50 71 80 71 74 74 81 84 85 81 83 82 76 71 68 66 61 58 52 44 42
48 45 43 42 45 46 38 57 54 41 36 32 26 23 25 30 26 25 30 31 22 34 59 64 69 73 70 76 79 83 88 87 84 84 81 75 72 70 68 65 60 54 44
46 44 44 44 45 43 43 61 53 43 37 35 32 35 29 27 31 31 30 32 23 17 50 73 64 59 71 65 73 80 83 82 86 84 83 79 74 72 72 71 68 61 53
47 47 45 45 47 45 42 62 53 44 39 37 37 39 34 30 24 27 31 33 38 41 31 48 68 69 63 68 76 80 87 85 80 84 82 83 78 76 74 75 74 70 62
48 48 47 46 48 42 49 61 53 44 39 38 41 33 37 34 25 24 32 38 36 40 45 45 52 46 61 57 61 72 77 88 85 82 83 83 83 81 80 78 78 77 72
47 47 45 49 47 44 55 59 54 44 38 43 38 38 38 38 30 24 29 31 38 35 44 40 52 50 61 63 62 67 71 81 89 83 80 82 86 85 83 81 83 83 80
48 47 46 48 53 42 53 58 51 43 41 38 39 42 40 40 40 33 23 26 35 39 40 35 56 53 59 54 48 70 83 80 83 82 84 81 82 84 82 79 77 80 83
47 49 47 45 52 46 56 60 53 40 39 37 40 36 37 40 42 41 33 23 28 34 39 37 49 66 60 71 62 45 56 83 82 85 86 88 84 84 80 78 78 78 78
47 46 47 46 47 51 56 59 50 43 39 39 44 41 39 39 36 36 34 24 24 29 39 31 56 58 67 65 67 67 33 41 77 80 85 87 90 93 91 86 82 81 79
49 45 48 48 47 49 55 55 47 43 44 44 44 46 44 45 42 40 34 21 19 24 26 37 31 40 58 59 64 60 31 33 49 83 85 91 94 101 100 94 87 82 82
51 46 48 48 47 47 55 54 49 47 44 44 42 47 51 50 50 46 41 25 10 18 31 21 30 38 36 51 64 68 54 43 46 46 73 82 92 103 105 100 93 89 83
51 48 48 47 45 45 52 53 52 47 43 43 45 45 46 51 52 49 43 36 19 8 25 29 28 36 30 42 53 59 67 48 46 36 36 79 90 99 107 100 96 90 87
48 48 47 48 47 46 50 51 53 54 50 48 44 44 46 47 48 47 43 41 33 21 7 18 30 33 41 41 56 57 58 54 58 52 59 49 68 77 98 109 99 97 89
44 49 46 47 47 49 48 47 50 53 55 51 48 45 44 45 45 44 43 44 43 41 27 4 17 37 37 44 36 56 61 63 63 55 65 49 36 64 70 91 103 99 95
Wind_Direction_500mb
342 343 341 342 335 319 293 274 281 226 222 223 224 216 218 220 218 217 219 192 199 196 193 200 208 205 202 199 198 197 194 193 191 191 191 191 183 173 179 183 187 235 268
342 341 340 342 341 337 317 269 274 259 233 230 228 222 217 219 218 213 216 209 214 211 203 195 209 210 209 202 201 201 198 196 195 196 195 197 192 184 195 191 197 239 251
346 342 342 342 346 343 340 305 264 253 265 226 232 226 220 215 215 216 214 216 213 205 223 206 207 213 213 207 203 202 201 200 199 199 200 202 197 198 205 195 218 242 254
347 342 347 343 346 350 341 334 299 268 250 253 237 224 221 216 213 213 213 214 212 198 197 212 209 211 212 211 206 203 203 204 202 202 204 206 203 206 211 219 227 238 256
346 339 335 335 347 352 356 343 323 291 282 250 261 219 219 217 211 209 210 213 216 208 201 210 213 211 211 211 210 206 205 206 206 205 207 209 208 209 209 214 228 237 251
350 343 347 350 354 354 358 360 340 320 297 313 230 250 238 216 208 207 203 211 217 215 206 214 223 205 216 213 212 209 208 208 207 207 209 211 209 206 211 213 220 232 243
357 1 359 359 2 359 354 359 359 340 331 310 245 227 208 201 200 208 205 205 212 213 212 214 222 225 225 216 214 212 211 210 209 209 211 212 210 208 211 211 213 219 228
0 360 356 356 3 1 355 357 3 357 346 347 324 221 256 215 197 206 204 212 209 212 218 224 217 218 210 213 214 213 213 212 212 211 212 212 212 211 219 213 212 208 209
1 4 358 358 2 3 357 355 357 2 347 340 335 45 202 225 217 217 213 221 217 214 216 218 192 222 204 210 212 212 214 214 213 212 214 214 215 214 215 215 214 207 208
7 3 2 1 1 360 359 353 354 356 355 345 8 190 198 262 257 211 214 228 226 220 216 214 213 220 216 210 215 213 212 214 218 215 213 215 216 214 214 218 211 211 212
6 4 3 359 359 359 356 351 346 352 359 351 337 322 286 262 277 228 208 213 224 221 221 221 221 216 223 223 217 218 217 216 217 218 216 215 216 219 220 214 215 216 218
0 6 2 357 356 355 351 344 346 351 360 357 344 323 314 304 297 302 360 203 214 218 220 219 219 217 218 223 224 226 224 222 215 220 219 216 217 219 223 225 220 223 220
1 6 4 355 355 356 350 348 351 354 2 1 356 334 303 302 270 267 253 289 244 219 221 221 222 218 227 228 230 229 229 227 223 220 222 220 218 221 222 227 236 237 227
3 2 1 356 359 1 4 355 355 359 3 8 1 347 323 295 286 255 233 260 280 231 229 226 225 225 229 228 231 231 235 227 227 225 224 225 221 222 223 224 230 237 236
1 360 1 2 4 6 354 355 360 5 7 10 5 353 333 311 288 269 247 240 244 270 223 226 221 221 230 233 234 235 236 233 228 227 227 227 227 224 223 224 228 233 234
359 358 0 2 3 4 352 358 3 7 15 11 6 354 347 330 301 272 252 244 241 243 278 237 234 237 226 241 237 235 234 235 233 229 227 227 228 229 226 225 226 230 234
0 360 1 2 4 6 351 357 6 8 12 10 2 0 352 347 323 284 261 244 238 241 256 247 227 220 223 232 235 239 238 239 235 232 230 228 226 228 229 229 228 229 232
1 0 2 4 5 359 354 359 5 11 10 6 359 4 359 355 347 318 268 266 246 241 247 237 239 232 226 229 231 241 243 240 238 232 229 226 226 227 230 231 232 231 232
0 3 4 4 6 356 353 6 9 12 10 6 6 8 3 2 357 346 314 279 255 248 238 228 240 236 231 229 224 224 243 244 239 237 230 228 229 226 226 228 229 230 232
3 4 4 4 4 6 11 8 9 12 11 9 9 11 8 6 359 354 339 291 272 253 249 226 229 239 237 231 239 255 215 229 235 236 235 229 228 226 226 227 228 231 233
6 5 7 9 6 12 13 9 10 15 12 9 12 11 11 6 3 2 344 309 276 257 248 245 232 236 246 244 244 249 229 212 236 237 237 232 228 225 225 227 228 229 233
9 10 13 13 10 14 13 14 15 18 20 16 12 9 10 6 8 6 0 330 278 267 253 239 229 225 245 244 243 242 266 221 225 234 237 237 231 230 229 229 229 228 228
15 20 18 18 16 17 17 16 18 23 20 23 16 12 8 5 8 9 7 1 296 248 255 255 236 215 220 240 247 235 249 262 245 227 234 240 236 232 231 232 232 230 232
19 21 21 20 19 21 21 16 19 24 27 26 24 19 10 7 8 7 10 18 10 290 250 243 249 231 215 226 228 242 239 261 260 234 235 237 240 235 230 231 234 233 233
22 25 24 21 23 25 24 19 18 23 26 27 24 23 16 14 10 10 12 21 24 26 304 253 236 244 236 226 235 231 231 247 253 243 240 223 237 237 234 233 237 237 236
24 26 29 26 27 29 27 21 18 17 20 23 23 23 21 18 14 15 17 21 25 22 20 301 250 240 239 236 216 226 228 233 239 248 246 229 238 231 229 232 236 239 241
Wind_Speed_850mb
74 62 54 52 50 45 40 40 36 56 61 65 62 67 66 73 76 72 58 75 54 67 65 54 57 57 57 54 53 50 48 44 40 37 32 25 20 21 19 17 12 4 2
68 67 58 51 51 50 39 46 55 45 49 72 72 72 70 74 77 78 76 72 65 65 71 65 61 62 62 59 57 54 52 48 43 39 35 29 24 23 20 19 15 8 5
63 59 56 53 53 51 42 36 41 44 46 63 68 79 74 72 79 81 83 73 64 65 75 66 65 65 68 65 61 58 56 51 47 41 38 32 27 25 25 22 13 12 9
61 56 51 52 54 55 48 36 32 37 69 45 53 83 77 74 80 82 80 78 75 61 82 79 74 71 72 69 65 62 60 54 49 45 41 35 31 28 28 20 17 15 14
58 48 46 53 50 57 56 44 29 30 33 58 55 39 78 78 80 81 77 73 68 69 79 74 71 74 73 71 70 67 65 58 52 48 44 39 34 27 28 27 22 18 16
54 45 50 46 47 56 62 55 39 27 28 35 73 38 63 84 79 75 70 70 71 64 70 74 79 83 70 75 74 72 69 62 56 52 48 42 36 30 32 31 27 23 18
51 47 53 51 50 54 60 63 47 33 18 27 33 69 33 71 67 72 71 67 68 68 75 85 85 105 97 84 79 77 71 66 61 55 52 46 40 37 36 36 33 27 21
47 48 51 51 50 51 58 65 61 47 31 23 18 45 53 37 64 57 58 69 70 66 68 65 86 109 97 91 88 82 76 70 65 59 55 49 46 40 36 41 37 33 27
49 47 50 50 47 49 52 58 61 52 41 24 13 5 14 13 53 73 72 56 65 72 70 67 80 89 104 89 91 85 81 74 69 63 58 54 49 43 41 43 42 38 34
52 49 48 49 50 48 51 53 57 62 39 35 14 7 11 21 12 36 80 78 58 66 74 77 82 77 92 84 88 87 83 79 72 66 62 58 52 49 49 44 45 41 41
54 47 46 46 47 47 49 46 55 58 35 31 27 23 25 32 23 10 39 72 65 63 73 68 71 78 81 79 83 85 83 83 79 71 66 62 58 55 52 50 50 45 44
59 43 46 44 43 43 46 50 53 49 35 26 23 22 21 21 26 18 12 34 61 63 67 70 71 73 73 75 76 78 80 82 85 78 71 66 63 60 56 52 52 47 45
54 44 43 44 44 41 38 51 57 43 36 30 24 22 23 23 24 29 43 38 19 43 50 71 80 71 74 74 81 84 85 81 83 82 76 71 68 66 61 58 52 44 42
48 45 43 42 45 46 38 57 54 41 36 32 26 23 25 30 26 25 30 31 22 34 59 64 69 73 70 76 79 83 88 87 84 84 81 75 72 70 68 65 60 54 44
46 44 44 44 45 43 43 61 53 43 37 35 32 35 29 27 31 31 30 32 23 17 50 73 64 59 71 65 73 80 83 82 86 84 83 79 74 72 72 71 68 61 53
47 47 45 45 47 45 42 62 53 44 39 37 37 39 34 30 24 27 31 33 38 41 31 48 68 69 63 68 76 80 87 85 80 84 82 83 78 76 74 75 74 70 62
48 48 47 46 48 42 49 61 53 44 39 38 41 33 37 34 25 24 32 38 36 40 45 45 52 46 61 57 61 72 77 88 85 82 83 83 83 81 80 78 78 77 72
47 47 45 49 47 44 55 59 54 44 38 43 38 38 38 38 30 24 29 31 38 35 44 40 52 50 61 63 62 67 71 81 89 83 80 82 86 85 83 81 83 83 80
48 47 46 48 53 42 53 58 51 43 41 38 39 42 40 40 40 33 23 26 35 39 40 35 56 53 59 54 48 70 83 80 83 82 84 81 82 84 82 79 77 80 83
47 49 47 45 52 46 56 60 53 40 39 37 40 36 37 40 42 41 33 23 28 34 39 37 49 66 60 71 62 45 56 83 82 85 86 88 84 84 80 78 78 78 78
47 46 47 46 47 51 56 59 50 43 39 39 44 41 39 39 36 36 34 24 24 29 39 31 56 58 67 65 67 67 33 41 77 80 85 87 90 93 91 86 82 81 79
49 45 48 48 47 49 55 55 47 43 44 44 44 46 44 45 42 40 34 21 19 24 26 37 31 40 58 59 64 60 31 33 49 83 85 91 94 101 100 94 87 82 82
51 46 48 48 47 47 55 54 49 47 44 44 42 47 51 50 50 46 41 25 10 18 31 21 30 38 36 51 64 68 54 43 46 46 73 82 92 103 105 100 93 89 83
51 48 48 47 45 45 52 53 52 47 43 43 45 45 46 51 52 49 43 36 19 8 25 29 28 36 30 42 53 59 67 48 46 36 36 79 90 99 107 100 96 90 87
48 48 47 48 47 46 50 51 53 54 50 48 44 44 46 47 48 47 43 41 33 21 7 18 30 33 41 41 56 57 58 54 58 52 59 49 68 77 98 109 99 97 89
44 49 46 47 47 49 48 47 50 53 55 51 48 45 44 45 45 44 43 44 43 41 27 4 17 37 37 44 36 56 61 63 63 55 65 49 36 64 70 91 103 99 95
Wind_Direction_850mb
342 343 341 342 335 319 293 274 281 226 222 223 224 216 218 220 218 217 219 192 199 196 193 200 208 205 202 199 198 197 194 193 191 191 191 191 183 173 179 183 187 235 268
342 341 340 342 341 337 317 269 274 259 233 230 228 222 217 219 218 213 216 209 214 211 203 195 209 210 209 202 201 201 198 196 195 196 195 197 192 184 195 191 197 239 251
346 342 342 342 346 343 340 305 264 253 265 226 232 226 220 215 215 216 214 216 213 205 223 206 207 213 213 207 203 202 201 200 199 199 200 202 197 198 205 195 218 242 254
347 342 347 343 346 350 341 334 299 268 250 253 237 224 221 216 213 213 213 214 212 198 197 212 209 211 212 211 206 203 203 204 202 202 204 206 203 206 211 219 227 238 256
346 339 335 335 347 352 356 343 323 291 282 250 261 219 219 217 211 209 210 213 216 208 201 210 213 211 211 211 210 206 205 206 206 205 207 209 208 209 209 214 228 237 251
350 343 347 350 354 354 358 360 340 320 297 313 230 250 238 216 208 207 203 211 217 215 206 214 223 205 216 213 212 209 208 208 207 207 209 211 209 206 211 213 220 232 243
357 1 359 359 2 359 354 359 359 340 331 310 245 227 208 201 200 208 205 205 212 213 212 214 222 225 225 216 214 212 211 210 209 209 211 212 210 208 211 211 213 219 228
0 360 356 356 3 1 355 357 3 357 346 347 324 221 256 215 197 206 204 212 209 212 218 224 217 218 210 213 214 213 213 212 212 211 212 212 212 211 219 213 212 208 209
1 4 358 358 2 3 357 355 357 2 347 340 335 45 202 225 217 217 213 221 217 214 216 218 192 222 204 210 212 212 214 214 213 212 214 214 215 214 215 215 214 207 208
7 3 2 1 1 360 359 353 354 356 355 345 8 190 198 262 257 211 214 228 226 220 216 214 213 220 216 210 215 213 212 214 218 215 213 215 216 214 214 218 211 211 212
6 4 3 359 359 359 356 351 346 352 359 351 337 322 286 262 277 228 208 213 224 221 221 221 221 216 223 223 217 218 217 216 217 218 216 215 216 219 220 214 215 216 218
0 6 2 357 356 355 351 344 346 351 360 357 344 323 314 304 297 302 360 203 214 218 220 219 219 217 218 223 224 226 224 222 215 220 219 216 217 219 223 225 220 223 220
1 6 4 355 355 356 350 348 351 354 2 1 356 334 303 302 270 267 253 289 244 219 221 221 222 218 227 228 230 229 229 227 223 220 222 220 218 221 222 227 236 237 227
3 2 1 356 359 1 4 355 355 359 3 8 1 347 323 295 286 255 233 260 280 231 229 226 225 225 229 228 231 231 235 227 227 225 224 225 221 222 223 224 230 237 236
1 360 1 2 4 6 354 355 360 5 7 10 5 353 333 311 288 269 247 240 244 270 223 226 221 221 230 233 234 235 236 233 228 227 227 227 227 224 223 224 228 233 234
359 358 0 2 3 4 352 358 3 7 15 11 6 354 347 330 301 272 252 244 241 243 278 237 234 237 226 241 237 235 234 235 233 229 227 227 228 229 226 225 226 230 234
0 360 1 2 4 6 351 357 6 8 12 10 2 0 352 347 323 284 261 244 238 241 256 247 227 220 223 232 235 239 238 239 235 232 230 228 226 228 229 229 228 229 232
1 0 2 4 5 359 354 359 5 11 10 6 359 4 359 355 347 318 268 266 246 241 247 237 239 232 226 229 231 241 243 240 238 232 229 226 226 227 230 231 232 231 232
0 3 4 4 6 356 353 6 9 12 10 6 6 8 3 2 357 346 314 279 255 248 238 228 240 236 231 229 224 224 243 244 239 237 230 228 229 226 226 228 229 230 232
3 4 4 4 4 6 11 8 9 12 11 9 9 11 8 6 359 354 339 291 272 253 249 226 229 239 237 231 239 255 215 229 235 236 235 229 228 226 226 227 228 231 233
6 5 7 9 6 12 13 9 10 15 12 9 12 11 11 6 3 2 344 309 276 257 248 245 232 236 246 244 244 249 229 212 236 237 237 232 228 225 225 227 228 229 233
9 10 13 13 10 14 13 14 15 18 20 16 12 9 10 6 8 6 0 330 278 267 253 239 229 225 245 244 243 242 266 221 225 234 237 237 231 230 229 229 229 228 228
15 20 18 18 16 17 17 16 18 23 20 23 16 12 8 5 8 9 7 1 296 248 255 255 236 215 220 240 247 235 249 262 245 227 234 240 236 232 231 232 232 230 232
19 21 21 20 19 21 21 16 19 24 27 26 24 19 10 7 8 7 10 18 10 290 250 243 249 231 215 226 228 242 239 261 260 234 235 237 240 235 230 231 234 233 233
22 25 24 21 23 25 24 19 18 23 26 27 24 23 16 14 10 10 12 21 24 26 304 253 236 244 236 226 235 231 231 247 253 243 240 223 237 237 234 233 237 237 236
24 26 29 26 27 29 27 21 18 17 20 23 23 23 21 18 14 15 17 21 25 22 20 301 250 240 239 236 216 226 228 233 239 248 246 229 238 231 229 232 236 239 241